User: anonymous   Login
Location: Eppenbrunn
(49.1158°N, 7.5601°E)
Time: 12:29:02
(UTC+00:00)
Language:

MOS 1-B Rocket - Orbit

View from above orbital plane
View from above orbital plane
View from above satellite
View from above satellite

Ground track
Ground track

The orbit data is extracted from the following two-line orbital elements,

1 20491U 90013D   20190.45145702  .00000080  00000-0  21575-3 0  9990
2 20491  99.0680  84.9073 0467832 208.8504 148.5991 13.03563390446552
Epoch (UTC): 08 July 2020 10:50:05
Eccentricity: 0.0467832
inclination: 99.0680°
perigee height: 891 km
apogee height: 1605 km
right ascension of ascending node: 84.9073°
argument of perigee: 208.8504°
revolutions per day: 13.03563390
mean anomaly at epoch: 148.5991°
orbit number at epoch: 44655

The dashed part of the orbit path shows where the satellite is in the earth's shadow,  

DLR